| time (UTC) | temp C | wind direction | speed KPH | gust KPH | rain 1hr cm | rain 24hr cm | rain mn cm | humidity % | barometer mb |
| 20260507135001 | 11 | 264 | 8.0 | 20.9 | 0.00 | 0.00 | 0.00 | 71 | 1012.6 |
| 20260507134501 | 10 | 344 | 8.0 | 16.1 | 0.00 | 0.00 | 0.00 | 72 | 1012.6 |
| 20260507134000 | 10 | 258 | 6.4 | 16.1 | 0.00 | 0.00 | 0.00 | 71 | 1012.7 |
| 20260507133501 | 10 | 240 | 6.4 | 17.7 | 0.00 | 0.00 | 0.00 | 74 | 1012.7 |
| 20260507133232 | 10 | 240 | 6.4 | 17.7 | 0.00 | 0.00 | 0.00 | 73 | 1012.8 |
| 20260507132733 | 10 | 209 | 6.4 | 14.5 | 0.00 | 0.00 | 0.00 | 75 | 1012.8 |
| 20260507132001 | 9 | 242 | 6.4 | 12.9 | 0.00 | 0.00 | 0.00 | 76 | 1012.8 |
| 20260507131501 | 9 | 328 | 6.4 | 14.5 | 0.00 | 0.00 | 0.00 | 76 | 1012.7 |
| 20260507131000 | 8 | 268 | 4.8 | 14.5 | 0.00 | 0.00 | 0.00 | 79 | 1012.8 |
| 20260507130500 | 8 | 255 | 6.4 | 19.3 | 0.00 | 0.00 | 0.00 | 79 | 1012.9 |
| 20260507130002 | 8 | 267 | 6.4 | 19.3 | 0.00 | 0.00 | 0.00 | 79 | 1012.9 |
| 20260507125502 | 8 | 249 | 6.4 | 14.5 | 0.00 | 0.00 | 0.00 | 80 | 1012.9 |
| 20260507125001 | 8 | 246 | 4.8 | 14.5 | 0.00 | 0.00 | 0.00 | 80 | 1012.8 |
| 20260507124501 | 7 | 253 | 4.8 | 16.1 | 0.00 | 0.00 | 0.00 | 82 | 1012.9 |
| 20260507124001 | 7 | 238 | 6.4 | 16.1 | 0.00 | 0.00 | 0.00 | 82 | 1012.9 |
| 20260507123501 | 7 | 243 | 4.8 | 14.5 | 0.00 | 0.00 | 0.00 | 83 | 1012.8 |
| 20260507123002 | 7 | 229 | 4.8 | 9.7 | 0.00 | 0.00 | 0.00 | 84 | 1012.8 |
| 20260507122501 | 6 | 224 | 4.8 | 11.3 | 0.00 | 0.00 | 0.00 | 84 | 1012.8 |
| 20260507122001 | 6 | 229 | 3.2 | 11.3 | 0.00 | 0.00 | 0.00 | 85 | 1012.7 |
| 20260507121732 | 6 | 245 | 3.2 | 9.7 | 0.00 | 0.00 | 0.00 | 86 | 1012.7 |
| 20260507121000 | 6 | 149 | 3.2 | 9.7 | 0.00 | 0.00 | 0.00 | 87 | 1012.7 |
| 20260507120731 | 5 | 238 | 4.8 | 11.3 | 0.00 | 0.00 | 0.00 | 87 | 1012.7 |
| 20260507120002 | 5 | 238 | 3.2 | 11.3 | 0.00 | 0.00 | 0.00 | 87 | 1012.8 |
| 20260507115501 | 5 | 236 | 3.2 | 11.3 | 0.00 | 0.00 | 0.00 | 87 | 1012.8 |
| 20260507115232 | 5 | 255 | 4.8 | 11.3 | 0.00 | 0.00 | 0.00 | 87 | 1012.8 |
| 20260507114501 | 5 | 255 | 4.8 | 12.9 | 0.00 | 0.00 | 0.00 | 87 | 1012.9 |
| 20260507114001 | 5 | 181 | 4.8 | 14.5 | 0.00 | 0.00 | 0.00 | 88 | 1012.9 |
| 20260507113501 | 5 | 240 | 3.2 | 14.5 | 0.00 | 0.00 | 0.00 | 87 | 1012.9 |
| 20260507113002 | 5 | 76 | 3.2 | 8.0 | 0.00 | 0.00 | 0.00 | 87 | 1012.9 |
| 20260507112501 | 5 | 233 | 4.8 | 8.0 | 0.00 | 0.00 | 0.00 | 87 | 1012.9 |
| 20260507112001 | 5 | 238 | 3.2 | 8.0 | 0.00 | 0.00 | 0.00 | 87 | 1012.9 |
| 20260507111500 | 5 | 272 | 3.2 | 8.0 | 0.00 | 0.00 | 0.00 | 87 | 1012.9 |
| 20260507111000 | 5 | 239 | 3.2 | 8.0 | 0.00 | 0.00 | 0.00 | 87 | 1012.9 |
| 20260507110501 | 5 | 227 | 4.8 | 11.3 | 0.00 | 0.00 | 0.00 | 87 | 1013.0 |
| 20260507110005 | 5 | 141 | 3.2 | 11.3 | 0.00 | 0.00 | 0.00 | 87 | 1012.9 |
| 20260507105503 | 5 | 242 | 3.2 | 9.7 | 0.00 | 0.00 | 0.00 | 87 | 1012.9 |
| 20260507105004 | 5 | 229 | 3.2 | 9.7 | 0.00 | 0.00 | 0.00 | 86 | 1012.9 |
| 20260507104504 | 5 | 225 | 3.2 | 9.7 | 0.00 | 0.00 | 0.00 | 86 | 1013.0 |
| 20260507104003 | 5 | 245 | 3.2 | 8.0 | 0.00 | 0.00 | 0.00 | 86 | 1013.0 |
| 20260507103502 | 5 | 238 | 3.2 | 9.7 | 0.00 | 0.00 | 0.00 | 86 | 1013.0 |
| 20260507103004 | 5 | 268 | 3.2 | 9.7 | 0.00 | 0.00 | 0.00 | 86 | 1013.0 |
| 20260507102503 | 5 | 248 | 4.8 | 11.3 | 0.00 | 0.00 | 0.00 | 86 | 1013.0 |
| 20260507102003 | 5 | 143 | 4.8 | 11.3 | 0.00 | 0.00 | 0.00 | 86 | 1012.9 |
| 20260507101504 | 5 | 173 | 3.2 | 9.7 | 0.00 | 0.00 | 0.00 | 85 | 1013.0 |
| 20260507101003 | 5 | 234 | 3.2 | 11.3 | 0.00 | 0.00 | 0.00 | 85 | 1013.1 |
| 20260507100503 | 5 | 198 | 4.8 | 11.3 | 0.00 | 0.00 | 0.00 | 85 | 1013.1 |
| 20260507100005 | 5 | 236 | 3.2 | 9.7 | 0.00 | 0.00 | 0.00 | 85 | 1013.1 |
| 20260507095504 | 5 | 219 | 3.2 | 11.3 | 0.00 | 0.00 | 0.00 | 85 | 1013.2 |
| 20260507095234 | 5 | 242 | 3.2 | 11.3 | 0.00 | 0.00 | 0.00 | 85 | 1013.2 |
| 20260507094504 | 5 | 275 | 3.2 | 11.3 | 0.00 | 0.00 | 0.00 | 84 | 1013.2 |
| 20260507094003 | 5 | 233 | 3.2 | 11.3 | 0.00 | 0.00 | 0.00 | 84 | 1013.3 |
| 20260507093503 | 5 | 233 | 3.2 | 8.0 | 0.00 | 0.00 | 0.00 | 84 | 1013.2 |
| 20260507093005 | 5 | 247 | 3.2 | 6.4 | 0.00 | 0.00 | 0.00 | 83 | 1013.3 |
| 20260507092504 | 5 | 229 | 3.2 | 6.4 | 0.00 | 0.00 | 0.00 | 83 | 1013.3 |
| 20260507092004 | 5 | 246 | 1.6 | 6.4 | 0.00 | 0.00 | 0.00 | 83 | 1013.4 |
| 20260507091503 | 6 | 170 | 1.6 | 6.4 | 0.00 | 0.00 | 0.00 | 82 | 1013.4 |
| 20260507091235 | 6 | 184 | 1.6 | 6.4 | 0.00 | 0.00 | 0.00 | 82 | 1013.5 |
| 20260507090503 | 6 | 234 | 3.2 | 8.0 | 0.00 | 0.00 | 0.00 | 82 | 1013.5 |
| 20260507090005 | 6 | 215 | 3.2 | 9.7 | 0.00 | 0.00 | 0.00 | 82 | 1013.5 |
| 20260507085504 | 6 | 238 | 3.2 | 9.7 | 0.00 | 0.00 | 0.00 | 82 | 1013.6 |
| 20260507085004 | 6 | 237 | 3.2 | 8.0 | 0.00 | 0.00 | 0.00 | 82 | 1013.6 |
| 20260507084459 | 6 | 217 | 3.2 | 8.0 | 0.00 | 0.00 | 0.00 | 82 | 1013.7 |
| 20260507083953 | 6 | 234 | 3.2 | 8.0 | 0.00 | 0.00 | 0.00 | 82 | 1013.7 |
| 20260507083447 | 6 | 224 | 3.2 | 6.4 | 0.00 | 0.00 | 0.00 | 82 | 1013.8 |
| 20260507083219 | 6 | 227 | 3.2 | 11.3 | 0.00 | 0.00 | 0.00 | 81 | 1013.8 |
| 20260507082715 | 6 | 241 | 3.2 | 11.3 | 0.00 | 0.00 | 0.00 | 81 | 1013.9 |
| 20260507081945 | 6 | 212 | 3.2 | 8.0 | 0.00 | 0.00 | 0.00 | 81 | 1013.9 |
| 20260507081445 | 6 | 229 | 3.2 | 8.0 | 0.00 | 0.00 | 0.00 | 81 | 1014.0 |
| 20260507080946 | 6 | 226 | 1.6 | 8.0 | 0.00 | 0.00 | 0.00 | 81 | 1014.0 |
| 20260507080446 | 6 | 228 | 1.6 | 6.4 | 0.00 | 0.00 | 0.00 | 81 | 1014.1 |
| 20260507075943 | 6 | 200 | 0.0 | 4.8 | 0.00 | 0.00 | 0.00 | 80 | 1014.2 |
| 20260507075443 | 6 | 172 | 1.6 | 4.8 | 0.00 | 0.00 | 0.00 | 79 | 1014.3 |
| 20260507074943 | 6 | 210 | 1.6 | 3.2 | 0.00 | 0.00 | 0.00 | 79 | 1014.3 |
| 20260507074444 | 6 | 140 | 1.6 | 4.8 | 0.00 | 0.00 | 0.00 | 79 | 1014.4 |
| 20260507073943 | 6 | 117 | 1.6 | 4.8 | 0.00 | 0.00 | 0.00 | 78 | 1014.4 |
| 20260507073441 | 6 | 212 | 1.6 | 4.8 | 0.00 | 0.00 | 0.00 | 78 | 1014.4 |
| 20260507073209 | 6 | 224 | 0.0 | 3.2 | 0.00 | 0.00 | 0.00 | 78 | 1014.6 |
| 20260507072439 | 6 | 224 | 0.0 | 4.8 | 0.00 | 0.00 | 0.00 | 77 | 1014.7 |
| 20260507071939 | 6 | 193 | 0.0 | 4.8 | 0.00 | 0.00 | 0.00 | 76 | 1014.7 |
| 20260507071437 | 6 | 245 | 0.0 | 3.2 | 0.00 | 0.00 | 0.00 | 76 | 1014.7 |
| 20260507070936 | 6 | 264 | 0.0 | 3.2 | 0.00 | 0.00 | 0.00 | 75 | 1014.8 |
| 20260507070436 | 6 | 198 | 0.0 | 4.8 | 0.00 | 0.00 | 0.00 | 75 | 1014.9 |
| 20260507065932 | 6 | 252 | 0.0 | 4.8 | 0.00 | 0.00 | 0.00 | 74 | 1014.9 |
| 20260507065431 | 6 | 233 | 0.0 | 3.2 | 0.00 | 0.00 | 0.00 | 73 | 1015.0 |
| 20260507064931 | 6 | 215 | 1.6 | 3.2 | 0.00 | 0.00 | 0.00 | 72 | 1015.1 |
| 20260507064431 | 6 | 205 | 1.6 | 4.8 | 0.00 | 0.00 | 0.00 | 72 | 1015.1 |
| 20260507063931 | 6 | 83 | 1.6 | 4.8 | 0.00 | 0.00 | 0.00 | 71 | 1015.2 |
| 20260507063432 | 6 | 200 | 1.6 | 4.8 | 0.00 | 0.00 | 0.00 | 71 | 1015.2 |
| 20260507063202 | 6 | 207 | 0.0 | 4.8 | 0.00 | 0.00 | 0.00 | 69 | 1015.2 |
| 20260507062432 | 6 | 217 | 0.0 | 4.8 | 0.00 | 0.00 | 0.00 | 69 | 1015.3 |
| 20260507061931 | 6 | 245 | 0.0 | 4.8 | 0.00 | 0.00 | 0.00 | 68 | 1015.3 |
| 20260507061431 | 6 | 164 | 0.0 | 3.2 | 0.00 | 0.00 | 0.00 | 68 | 1015.2 |
| 20260507060932 | 6 | 240 | 0.0 | 4.8 | 0.00 | 0.00 | 0.00 | 66 | 1015.3 |
| 20260507060432 | 6 | 161 | 1.6 | 6.4 | 0.00 | 0.00 | 0.00 | 66 | 1015.3 |
| 20260507055931 | 6 | 194 | 1.6 | 8.0 | 0.00 | 0.00 | 0.00 | 65 | 1015.4 |
| 20260507055431 | 6 | 234 | 1.6 | 8.0 | 0.00 | 0.00 | 0.00 | 64 | 1015.3 |
| 20260507054931 | 6 | 228 | 0.0 | 6.4 | 0.00 | 0.00 | 0.00 | 63 | 1015.4 |
| 20260507054431 | 6 | 205 | 1.6 | 6.4 | 0.00 | 0.00 | 0.00 | 62 | 1015.3 |
| 20260507053931 | 7 | 178 | 1.6 | 4.8 | 0.00 | 0.00 | 0.00 | 61 | 1015.3 |
| 20260507053431 | 7 | 227 | 0.0 | 4.8 | 0.00 | 0.00 | 0.00 | 60 | 1015.4 |
| 20260507052932 | 7 | 158 | 0.0 | 3.2 | 0.00 | 0.00 | 0.00 | 59 | 1015.4 |
| 20260507052429 | 7 | 161 | 1.6 | 4.8 | 0.00 | 0.00 | 0.00 | 58 | 1015.4 |
| 20260507051929 | 7 | 252 | 1.6 | 4.8 | 0.00 | 0.00 | 0.00 | 57 | 1015.4 |
| 20260507051429 | 7 | 226 | 1.6 | 6.4 | 0.00 | 0.00 | 0.00 | 56 | 1015.4 |
| 20260507050929 | 7 | 233 | 1.6 | 6.4 | 0.00 | 0.00 | 0.00 | 55 | 1015.5 |
| 20260507050429 | 7 | 206 | 1.6 | 3.2 | 0.00 | 0.00 | 0.00 | 54 | 1015.5 |
| 20260507045928 | 7 | 183 | 1.6 | 3.2 | 0.00 | 0.00 | 0.00 | 53 | 1015.5 |
| 20260507045429 | 8 | 217 | 1.6 | 6.4 | 0.00 | 0.00 | 0.00 | 53 | 1015.5 |
| 20260507044929 | 8 | 245 | 1.6 | 8.0 | 0.00 | 0.00 | 0.00 | 53 | 1015.6 |
| 20260507044428 | 8 | 228 | 1.6 | 8.0 | 0.00 | 0.00 | 0.00 | 53 | 1015.6 |
| 20260507043929 | 8 | 224 | 1.6 | 4.8 | 0.00 | 0.00 | 0.00 | 52 | 1015.6 |
| 20260507043429 | 8 | 244 | 0.0 | 4.8 | 0.00 | 0.00 | 0.00 | 52 | 1015.6 |
| 20260507042929 | 8 | 250 | 0.0 | 3.2 | 0.00 | 0.00 | 0.00 | 51 | 1015.6 |
| 20260507042430 | 8 | 250 | 0.0 | 3.2 | 0.00 | 0.00 | 0.00 | 50 | 1015.6 |
| 20260507041929 | 8 | 250 | 0.0 | 3.2 | 0.00 | 0.00 | 0.00 | 49 | 1015.6 |
| 20260507041429 | 8 | 250 | 1.6 | 3.2 | 0.00 | 0.00 | 0.00 | 48 | 1015.7 |
| 20260507040928 | 8 | 250 | 0.0 | 3.2 | 0.00 | 0.00 | 0.00 | 48 | 1015.7 |
| 20260507040428 | 8 | 250 | 0.0 | 3.2 | 0.00 | 0.00 | 0.00 | 48 | 1015.7 |
| 20260507035928 | 8 | 250 | 0.0 | 3.2 | 0.00 | 0.00 | 0.00 | 49 | 1015.7 |
| 20260507035430 | 8 | 251 | 0.0 | 4.8 | 0.00 | 0.00 | 0.00 | 50 | 1015.7 |
| 20260507035201 | 8 | 252 | 0.0 | 4.8 | 0.00 | 0.00 | 0.00 | 51 | 1015.8 |
| 20260507034429 | 8 | 255 | 0.0 | 1.6 | 0.00 | 0.00 | 0.00 | 51 | 1015.8 |
| 20260507033929 | 8 | 255 | 0.0 | 1.6 | 0.00 | 0.00 | 0.00 | 51 | 1015.8 |
| 20260507033428 | 8 | 255 | 0.0 | 1.6 | 0.00 | 0.00 | 0.00 | 50 | 1015.8 |
| 20260507032929 | 8 | 255 | 0.0 | 1.6 | 0.00 | 0.00 | 0.00 | 49 | 1015.9 |
| 20260507032432 | 8 | 255 | 0.0 | 1.6 | 0.00 | 0.00 | 0.00 | 49 | 1015.8 |
| 20260507031932 | 8 | 255 | 0.0 | 1.6 | 0.00 | 0.00 | 0.00 | 49 | 1015.8 |
| 20260507031432 | 8 | 255 | 0.0 | 1.6 | 0.00 | 0.00 | 0.00 | 49 | 1015.9 |
| 20260507030931 | 8 | 255 | 0.0 | 1.6 | 0.00 | 0.00 | 0.00 | 49 | 1015.9 |
| 20260507030431 | 8 | 255 | 0.0 | 0.0 | 0.00 | 0.00 | 0.00 | 49 | 1015.9 |
| 20260507025930 | 8 | 255 | 0.0 | 0.0 | 0.00 | 0.00 | 0.00 | 49 | 1015.9 |
| 20260507025432 | 8 | 255 | 0.0 | 0.0 | 0.00 | 0.00 | 0.00 | 49 | 1015.9 |
| 20260507024932 | 8 | 255 | 0.0 | 0.0 | 0.00 | 0.00 | 0.00 | 50 | 1015.8 |
| 20260507024429 | 8 | 255 | 0.0 | 0.0 | 0.00 | 0.00 | 0.00 | 51 | 1015.8 |
| 20260507024201 | 8 | 255 | 0.0 | 0.0 | 0.00 | 0.00 | 0.00 | 49 | 1015.8 |
| 20260507023429 | 8 | 255 | 0.0 | 0.0 | 0.00 | 0.00 | 0.00 | 48 | 1015.8 |
| 20260507022928 | 8 | 255 | 0.0 | 0.0 | 0.00 | 0.00 | 0.00 | 48 | 1015.7 |
| 20260507022429 | 8 | 255 | 0.0 | 0.0 | 0.00 | 0.00 | 0.00 | 48 | 1015.7 |
| 20260507021929 | 9 | 255 | 0.0 | 0.0 | 0.00 | 0.00 | 0.00 | 47 | 1015.6 |
| 20260507021429 | 9 | 255 | 0.0 | 0.0 | 0.00 | 0.00 | 0.00 | 47 | 1015.5 |
| 20260507020929 | 9 | 255 | 0.0 | 0.0 | 0.00 | 0.00 | 0.00 | 47 | 1015.5 |
| 20260507020428 | 10 | 255 | 0.0 | 0.0 | 0.00 | 0.00 | 0.00 | 46 | 1015.5 |
| 20260507015929 | 10 | 255 | 0.0 | 0.0 | 0.00 | 0.00 | 0.00 | 46 | 1015.5 |
| 20260507015430 | 10 | 255 | 0.0 | 0.0 | 0.00 | 0.00 | 0.00 | 45 | 1015.5 |
| 20260507014929 | 11 | 255 | 0.0 | 0.0 | 0.00 | 0.00 | 0.00 | 44 | 1015.5 |
| 20260507014700 | 11 | 255 | 0.0 | 0.0 | 0.00 | 0.00 | 0.00 | 42 | 1015.5 |
| 20260507013929 | 12 | 255 | 0.0 | 0.0 | 0.00 | 0.00 | 0.00 | 40 | 1015.4 |
| 20260507013429 | 12 | 255 | 0.0 | 1.6 | 0.00 | 0.00 | 0.00 | 39 | 1015.4 |
| 20260507012929 | 13 | 255 | 0.0 | 1.6 | 0.00 | 0.00 | 0.00 | 36 | 1015.4 |
| 20260507012429 | 13 | 255 | 0.0 | 1.6 | 0.00 | 0.00 | 0.00 | 36 | 1015.4 |
| 20260507011929 | 13 | 255 | 0.0 | 4.8 | 0.00 | 0.00 | 0.00 | 35 | 1015.4 |
| 20260507011428 | 13 | 252 | 1.6 | 4.8 | 0.00 | 0.00 | 0.00 | 34 | 1015.4 |
| 20260507010923 | 14 | 307 | 1.6 | 4.8 | 0.00 | 0.00 | 0.00 | 33 | 1015.4 |
| 20260507010647 | 15 | 316 | 1.6 | 4.8 | 0.00 | 0.00 | 0.00 | 32 | 1015.4 |
| 20260507005910 | 15 | 248 | 3.2 | 8.0 | 0.00 | 0.00 | 0.00 | 32 | 1015.5 |
| 20260507005411 | 15 | 321 | 1.6 | 8.0 | 0.00 | 0.00 | 0.00 | 31 | 1015.5 |
| 20260507004909 | 15 | 324 | 1.6 | 4.8 | 0.00 | 0.00 | 0.00 | 32 | 1015.5 |
| 20260507004641 | 15 | 271 | 1.6 | 8.0 | 0.00 | 0.00 | 0.00 | 32 | 1015.5 |
| 20260507003909 | 15 | 270 | 3.2 | 8.0 | 0.00 | 0.00 | 0.00 | 31 | 1015.6 |
| 20260507003410 | 15 | 331 | 3.2 | 12.9 | 0.00 | 0.00 | 0.00 | 31 | 1015.5 |
| 20260507002909 | 16 | 339 | 3.2 | 12.9 | 0.00 | 0.00 | 0.00 | 31 | 1015.5 |
| 20260507002407 | 16 | 352 | 3.2 | 12.9 | 0.00 | 0.00 | 0.00 | 30 | 1015.6 |
| 20260507001905 | 15 | 339 | 4.8 | 12.9 | 0.00 | 0.00 | 0.00 | 30 | 1015.7 |
| 20260507001405 | 16 | 334 | 3.2 | 11.3 | 0.00 | 0.00 | 0.00 | 29 | 1015.6 |
| 20260507000905 | 16 | 326 | 3.2 | 8.0 | 0.00 | 0.00 | 0.00 | 30 | 1015.7 |
| 20260507000405 | 16 | 311 | 3.2 | 9.7 | 0.00 | 0.00 | 0.00 | 32 | 1015.7 |
| 20260506235905 | 16 | 339 | 3.2 | 9.7 | 0.00 | 0.00 | 0.00 | 31 | 1015.7 |
| 20260506235401 | 16 | 247 | 4.8 | 11.3 | 0.00 | 0.00 | 0.00 | 30 | 1015.8 |
| 20260506234901 | 16 | 327 | 4.8 | 11.3 | 0.00 | 0.00 | 0.00 | 29 | 1015.8 |
| 20260506234401 | 16 | 330 | 3.2 | 11.3 | 0.00 | 0.00 | 0.00 | 29 | 1015.8 |
| 20260506233902 | 16 | 329 | 4.8 | 14.5 | 0.00 | 0.00 | 0.00 | 31 | 1015.9 |
| 20260506233400 | 16 | 316 | 6.4 | 20.9 | 0.00 | 0.00 | 0.00 | 30 | 1015.9 |
| 20260506232900 | 16 | 311 | 6.4 | 20.9 | 0.00 | 0.00 | 0.00 | 30 | 1015.9 |
| 20260506232401 | 16 | 337 | 6.4 | 16.1 | 0.00 | 0.00 | 0.00 | 29 | 1015.9 |
| 20260506231901 | 16 | 259 | 6.4 | 16.1 | 0.00 | 0.00 | 0.00 | 31 | 1015.9 |
| 20260506231401 | 16 | 261 | 4.8 | 12.9 | 0.00 | 0.00 | 0.00 | 33 | 1016.0 |
| 20260506230905 | 15 | 267 | 4.8 | 14.5 | 0.00 | 0.00 | 0.00 | 32 | 1016.0 |
| 20260506230901 | 16 | 330 | 6.4 | 14.5 | 0.00 | 0.00 | 0.00 | 30 | 1016.0 |
| 20260506225901 | 15 | 313 | 3.2 | 8.0 | 0.00 | 0.00 | 0.00 | 32 | 1016.1 |
| 20260506225400 | 15 | 310 | 3.2 | 9.7 | 0.00 | 0.00 | 0.00 | 32 | 1016.1 |
| 20260506224904 | 15 | 314 | 3.2 | 9.7 | 0.00 | 0.00 | 0.00 | 33 | 1016.2 |
| 20260506224636 | 15 | 353 | 3.2 | 8.0 | 0.00 | 0.00 | 0.00 | 32 | 1016.2 |
| 20260506223904 | 15 | 317 | 3.2 | 8.0 | 0.00 | 0.00 | 0.00 | 31 | 1016.1 |
| 20260506223403 | 15 | 255 | 3.2 | 11.3 | 0.00 | 0.00 | 0.00 | 33 | 1016.2 |
| 20260506223135 | 15 | 349 | 4.8 | 11.3 | 0.00 | 0.00 | 0.00 | 31 | 1016.2 |
| 20260506222403 | 15 | 313 | 6.4 | 16.1 | 0.00 | 0.00 | 0.00 | 30 | 1016.2 |
| 20260506221903 | 16 | 335 | 6.4 | 16.1 | 0.00 | 0.00 | 0.00 | 29 | 1016.2 |
| 20260506221403 | 16 | 293 | 3.2 | 12.9 | 0.00 | 0.00 | 0.00 | 32 | 1016.3 |
| 20260506220907 | 15 | 324 | 3.2 | 8.0 | 0.00 | 0.00 | 0.00 | 32 | 1016.4 |
| 20260506220903 | 15 | 322 | 3.2 | 8.0 | 0.00 | 0.00 | 0.00 | 37 | 1016.3 |
| 20260506215857 | 15 | 285 | 3.2 | 9.7 | 0.00 | 0.00 | 0.00 | 34 | 1016.4 |
| 20260506215351 | 15 | 330 | 3.2 | 9.7 | 0.00 | 0.00 | 0.00 | 33 | 1016.6 |
| 20260506215347 | 15 | 274 | 3.2 | 14.5 | 0.00 | 0.00 | 0.00 | 33 | 1016.7 |
| 20260506214345 | 15 | 324 | 4.8 | 14.5 | 0.00 | 0.00 | 0.00 | 32 | 1016.6 |
| 20260506214113 | 15 | 310 | 4.8 | 14.5 | 0.00 | 0.00 | 0.00 | 33 | 1016.7 |
| 20260506213343 | 15 | 269 | 6.4 | 14.5 | 0.00 | 0.00 | 0.00 | 33 | 1016.7 |
| 20260506212843 | 15 | 343 | 4.8 | 14.5 | 0.00 | 0.00 | 0.00 | 32 | 1016.8 |
| 20260506212343 | 15 | 324 | 6.4 | 16.1 | 0.00 | 0.00 | 0.00 | 32 | 1016.8 |
| 20260506211840 | 15 | 323 | 4.8 | 16.1 | 0.00 | 0.00 | 0.00 | 33 | 1016.8 |
| 20260506211341 | 15 | 26 | 4.8 | 9.7 | 0.00 | 0.00 | 0.00 | 35 | 1016.8 |
| 20260506210839 | 15 | 354 | 4.8 | 12.9 | 0.00 | 0.00 | 0.00 | 33 | 1016.9 |
| 20260506210610 | 15 | 227 | 6.4 | 12.9 | 0.00 | 0.00 | 0.00 | 32 | 1017.1 |
| 20260506210110 | 15 | 314 | 8.0 | 20.9 | 0.00 | 0.00 | 0.00 | 33 | 1017.1 |
| 20260506210054 | 15 | 297 | 6.4 | 20.9 | 0.00 | 0.00 | 0.00 | 33 | 1017.2 |
| 20260506205553 | 15 | 11 | 4.8 | 16.1 | 0.00 | 0.00 | 0.00 | 32 | 1017.2 |
| 20260506204337 | 16 | 326 | 8.0 | 16.1 | 0.00 | 0.00 | 0.00 | 30 | 1017.4 |
| 20260506203837 | 16 | 324 | 8.0 | 20.9 | 0.00 | 0.00 | 0.00 | 31 | 1017.5 |
| 20260506203337 | 16 | 326 | 4.8 | 14.5 | 0.00 | 0.00 | 0.00 | 34 | 1017.4 |
| 20260506202831 | 15 | 297 | 6.4 | 16.1 | 0.00 | 0.00 | 0.00 | 33 | 1017.5 |
| 20260506202331 | 15 | 337 | 6.4 | 16.1 | 0.00 | 0.00 | 0.00 | 32 | 1017.5 |
| 20260506201831 | 15 | 327 | 6.4 | 24.1 | 0.00 | 0.00 | 0.00 | 34 | 1017.5 |
| 20260506201331 | 15 | 300 | 8.0 | 24.1 | 0.00 | 0.00 | 0.00 | 34 | 1017.7 |
| 20260506200830 | 15 | 316 | 6.4 | 19.3 | 0.00 | 0.00 | 0.00 | 33 | 1017.7 |
| 20260506200331 | 15 | 250 | 6.4 | 22.5 | 0.00 | 0.00 | 0.00 | 32 | 1017.7 |
| 20260506195831 | 15 | 314 | 6.4 | 22.5 | 0.00 | 0.00 | 0.00 | 34 | 1017.8 |
| 20260506195330 | 15 | 333 | 4.8 | 11.3 | 0.00 | 0.00 | 0.00 | 33 | 1017.8 |
| 20260506194831 | 15 | 224 | 6.4 | 12.9 | 0.00 | 0.00 | 0.00 | 34 | 1017.9 |
| 20260506194330 | 15 | 311 | 6.4 | 17.7 | 0.00 | 0.00 | 0.00 | 34 | 1018.0 |
| 20260506193831 | 15 | 296 | 6.4 | 17.7 | 0.00 | 0.00 | 0.00 | 35 | 1017.9 |
| 20260506193330 | 15 | 329 | 3.2 | 12.9 | 0.00 | 0.00 | 0.00 | 32 | 1018.0 |
| 20260506192831 | 15 | 240 | 3.2 | 9.7 | 0.00 | 0.00 | 0.00 | 32 | 1018.0 |
| 20260506192330 | 15 | 319 | 4.8 | 16.1 | 0.00 | 0.00 | 0.00 | 34 | 1018.0 |
| 20260506191830 | 14 | 6 | 6.4 | 16.1 | 0.00 | 0.00 | 0.00 | 34 | 1018.0 |
| 20260506191329 | 15 | 311 | 8.0 | 17.7 | 0.00 | 0.00 | 0.00 | 34 | 1017.9 |
| 20260506191100 | 15 | 328 | 8.0 | 17.7 | 0.00 | 0.00 | 0.00 | 35 | 1018.0 |
| 20260506190329 | 15 | 334 | 6.4 | 22.5 | 0.00 | 0.00 | 0.00 | 33 | 1017.9 |
| 20260506185829 | 15 | 336 | 6.4 | 22.5 | 0.00 | 0.00 | 0.00 | 34 | 1018.1 |
| 20260506185329 | 14 | 250 | 6.4 | 19.3 | 0.00 | 0.00 | 0.00 | 36 | 1018.1 |
| 20260506184828 | 14 | 330 | 6.4 | 19.3 | 0.00 | 0.00 | 0.00 | 33 | 1018.2 |
| 20260506184328 | 14 | 323 | 3.2 | 16.1 | 0.00 | 0.00 | 0.00 | 35 | 1018.2 |
| 20260506183829 | 14 | 345 | 4.8 | 19.3 | 0.00 | 0.00 | 0.00 | 37 | 1018.1 |
| 20260506183559 | 13 | 330 | 6.4 | 19.3 | 0.00 | 0.00 | 0.00 | 33 | 1018.3 |
| 20260506182828 | 14 | 37 | 6.4 | 16.1 | 0.00 | 0.00 | 0.00 | 36 | 1018.3 |
| 20260506182328 | 15 | 286 | 6.4 | 14.5 | 0.00 | 0.00 | 0.00 | 33 | 1018.3 |
| 20260506181827 | 15 | 330 | 4.8 | 12.9 | 0.00 | 0.00 | 0.00 | 36 | 1018.4 |
| 20260506181326 | 15 | 257 | 3.2 | 11.3 | 0.00 | 0.00 | 0.00 | 34 | 1018.5 |
| 20260506181055 | 14 | 267 | 4.8 | 16.1 | 0.00 | 0.00 | 0.00 | 37 | 1018.6 |
| 20260506180324 | 14 | 11 | 4.8 | 16.1 | 0.00 | 0.00 | 0.00 | 35 | 1018.6 |
| 20260506175823 | 14 | 330 | 4.8 | 12.9 | 0.00 | 0.00 | 0.00 | 33 | 1018.6 |
| 20260506175322 | 14 | 279 | 4.8 | 12.9 | 0.00 | 0.00 | 0.00 | 36 | 1018.7 |
| 20260506174821 | 14 | 331 | 6.4 | 27.4 | 0.00 | 0.00 | 0.00 | 39 | 1018.8 |
| 20260506174320 | 14 | 276 | 6.4 | 27.4 | 0.00 | 0.00 | 0.00 | 34 | 1018.8 |
| 20260506173819 | 13 | 1 | 6.4 | 17.7 | 0.00 | 0.00 | 0.00 | 37 | 1018.8 |
| 20260506173319 | 13 | 207 | 6.4 | 22.5 | 0.00 | 0.00 | 0.00 | 36 | 1018.9 |
| 20260506172819 | 13 | 304 | 4.8 | 22.5 | 0.00 | 0.00 | 0.00 | 36 | 1019.0 |
| 20260506172318 | 13 | 192 | 3.2 | 12.9 | 0.00 | 0.00 | 0.00 | 38 | 1019.1 |
| 20260506171819 | 13 | 352 | 4.8 | 12.9 | 0.00 | 0.00 | 0.00 | 38 | 1019.1 |
| 20260506171316 | 13 | 345 | 6.4 | 17.7 | 0.00 | 0.00 | 0.00 | 38 | 1019.1 |
| 20260506170816 | 12 | 324 | 8.0 | 17.7 | 0.00 | 0.00 | 0.00 | 37 | 1019.2 |
| 20260506170316 | 13 | 334 | 8.0 | 17.7 | 0.00 | 0.00 | 0.00 | 35 | 1019.2 |
| 20260506165812 | 13 | 337 | 8.0 | 20.9 | 0.00 | 0.00 | 0.00 | 35 | 1019.2 |
| 20260506165312 | 13 | 328 | 6.4 | 20.9 | 0.00 | 0.00 | 0.00 | 35 | 1019.3 |
| 20260506164812 | 13 | 329 | 4.8 | 14.5 | 0.00 | 0.00 | 0.00 | 40 | 1019.4 |
| 20260506164312 | 12 | 359 | 4.8 | 12.9 | 0.00 | 0.00 | 0.00 | 40 | 1019.3 |
| 20260506164041 | 13 | 290 | 4.8 | 12.9 | 0.00 | 0.00 | 0.00 | 40 | 1019.6 |
| 20260506163310 | 13 | 316 | 3.2 | 11.3 | 0.00 | 0.00 | 0.00 | 37 | 1019.3 |
| 20260506163041 | 12 | 102 | 4.8 | 14.5 | 0.00 | 0.00 | 0.00 | 38 | 1019.3 |
| 20260506162308 | 12 | 335 | 4.8 | 16.1 | 0.00 | 0.00 | 0.00 | 38 | 1019.4 |
| 20260506161808 | 12 | 341 | 4.8 | 16.1 | 0.00 | 0.00 | 0.00 | 38 | 1019.6 |
| 20260506161308 | 12 | 352 | 4.8 | 16.1 | 0.00 | 0.00 | 0.00 | 38 | 1019.4 |
| 20260506160806 | 12 | 18 | 6.4 | 16.1 | 0.00 | 0.00 | 0.00 | 38 | 1019.6 |
| 20260506160306 | 12 | 323 | 6.4 | 16.1 | 0.00 | 0.00 | 0.00 | 41 | 1019.4 |
| 20260506155806 | 12 | 253 | 6.4 | 16.1 | 0.00 | 0.00 | 0.00 | 37 | 1019.4 |
| 20260506155308 | 11 | 313 | 6.4 | 17.7 | 0.00 | 0.00 | 0.00 | 38 | 1019.3 |
| 20260506155035 | 12 | 329 | 4.8 | 17.7 | 0.00 | 0.00 | 0.00 | 39 | 1019.3 |
| 20260506154303 | 12 | 334 | 3.2 | 9.7 | 0.00 | 0.00 | 0.00 | 38 | 1019.3 |
| 20260506153803 | 12 | 38 | 3.2 | 6.4 | 0.00 | 0.00 | 0.00 | 41 | 1019.3 |
| 20260506153534 | 11 | 297 | 3.2 | 9.7 | 0.00 | 0.00 | 0.00 | 43 | 1019.4 |
| 20260506152804 | 11 | 321 | 3.2 | 9.7 | 0.00 | 0.00 | 0.00 | 39 | 1019.3 |
| 20260506152305 | 11 | 347 | 3.2 | 8.0 | 0.00 | 0.00 | 0.00 | 41 | 1019.3 |
| 20260506151804 | 11 | 248 | 3.2 | 11.3 | 0.00 | 0.00 | 0.00 | 44 | 1019.3 |
| 20260506151534 | 11 | 34 | 3.2 | 11.3 | 0.00 | 0.00 | 0.00 | 41 | 1019.3 |
| 20260506150803 | 11 | 348 | 3.2 | 9.7 | 0.00 | 0.00 | 0.00 | 41 | 1019.3 |
| 20260506150304 | 11 | 335 | 3.2 | 9.7 | 0.00 | 0.00 | 0.00 | 43 | 1019.3 |
| 20260506145803 | 10 | 325 | 3.2 | 9.7 | 0.00 | 0.00 | 0.00 | 44 | 1019.2 |
| 20260506145305 | 11 | 335 | 1.6 | 6.4 | 0.00 | 0.00 | 0.00 | 41 | 1019.2 |
| 20260506144804 | 10 | 317 | 1.6 | 6.4 | 0.00 | 0.00 | 0.00 | 42 | 1019.2 |
| 20260506144304 | 10 | 338 | 1.6 | 6.4 | 0.00 | 0.00 | 0.00 | 43 | 1019.3 |
| 20260506144034 | 10 | 323 | 1.6 | 4.8 | 0.00 | 0.00 | 0.00 | 46 | 1019.3 |
| 20260506143304 | 10 | 271 | 1.6 | 6.4 | 0.00 | 0.00 | 0.00 | 45 | 1019.3 |
| 20260506142807 | 10 | 335 | 1.6 | 6.4 | 0.00 | 0.00 | 0.00 | 44 | 1019.3 |
| 20260506142803 | 10 | 47 | 1.6 | 6.4 | 0.00 | 0.00 | 0.00 | 44 | 1019.3 |
| 20260506141801 | 10 | 71 | 1.6 | 4.8 | 0.00 | 0.00 | 0.00 | 45 | 1019.3 |
| 20260506141301 | 10 | 293 | 0.0 | 3.2 | 0.00 | 0.00 | 0.00 | 46 | 1019.3 |
| 20260506140801 | 10 | 359 | 1.6 | 4.8 | 0.00 | 0.00 | 0.00 | 46 | 1019.3 |
| 20260506140301 | 10 | 67 | 1.6 | 4.8 | 0.00 | 0.00 | 0.00 | 45 | 1019.2 |
| 20260506140032 | 10 | 346 | 0.0 | 4.8 | 0.00 | 0.00 | 0.00 | 46 | 1019.2 |
| 20260506135300 | 9 | 324 | 0.0 | 4.8 | 0.00 | 0.00 | 0.00 | 48 | 1019.1 |